Location: D�rnast
(49.6426°N, 11.9755°E)
Time: 23:41:58
(UTC+00:00)

ISS - Pass Details

Date: 07 December 2021
Orbit: 413 x 422 km, 51.6° (Epoch: 24 January)

Event Time Altitude Azimuth Distance (km) Brightness Sun altitude
Rises 16:05:06 0° 288° (WNW) 2,387 0.9 -8.2°
Reaches altitude 10° 16:07:15 10° 282° (WNW) 1,517 -0.1 -8.5°
Maximum altitude 16:10:32 45° 209° (SSW) 589 -2.6 -9.0°
Drops below altitude 10° 16:13:46 10° 135° (SE) 1,505 -1.1 -9.5°
Enters shadow 16:16:49 -3° 128° (SE) 2,733 0.1 -9.9°
